User: anonymous   Login
Location: Albuquerque Trailhead
(34.7934°N, 106.3736°W)
Time: 01:03:49
(UTC+00:00)
Language:

DNEPR-1 R/B - Orbit

View from above orbital plane
View from above orbital plane
View from above satellite
View from above satellite

Ground track
Ground track

The orbit data is extracted from the following two-line orbital elements,

1 26550U 00057F   21270.47948659 -.00000036  00000-0  26909-4 0  9994
2 26550  64.5646 181.3384 0507199  86.5967 279.2947 13.80819052 58584
Epoch (UTC): 27 September 2021 11:30:27
Eccentricity: 0.0507199
inclination: 64.5646°
perigee height: 589 km
apogee height: 1333 km
right ascension of ascending node: 181.3384°
argument of perigee: 86.5967°
revolutions per day: 13.80819052
mean anomaly at epoch: 279.2947°
orbit number at epoch: 5858

The dashed part of the orbit path shows where the satellite is in the earth's shadow,  

DLR